Flag for Mauritania Weather past 2 weeks in Nouadhibou, Mauritania

75 °F


Feels Like: 77 °F
Forecast: N/A
Wind: 16 mph from Northwest

Location: Nouadhibou Airport

Current Time: Oct 13, 2015 at 7:06:55 PM

Latest Report: Oct 13, 2015 at 6:00 PM

Visibility: 10 mi

Pressure: 29.92 "Hg

Humidity: 74%

Dew point: 66 °F

Location of NouadhibouLocation

Historic Weather in Nouadhibou — Graph


Nouadhibou temperature yesterday

Maximum temperature yesterday: 84 °F (at 12:00 PM)
Minimum temperature yesterday: 72 °F (at 5:00 AM)
Average temperature yesterday: 76 °F

Past Weeks' High & Low Weather Summary

High104 °F (Oct 3, 4:00 PM)100% (Oct 2, 6:00 AM)32.90 "Hg (Oct 2, 6:00 AM)
Low36 °F (Oct 2, 6:00 AM)19% (Oct 5, 3:00 PM)29.83 "Hg (Oct 2, 4:00 PM)
Average81 °F66%29.94 "Hg
* Reported Sep 28 6:00 PM — Oct 13 6:00 PM, Nouadhibou, Weather by CustomWeather, © 2015

Note: Actual official high and low records may vary slightly from our data, if they occured in-between our weather recording intervals... More about our weather records


Nouadhibou weather history for previous 24 hours

Time TempWeatherWind HumidityBarometerVisibility
6:00 PM
Tue, Oct 13
75 °FSunny.16 mph74%29.92 "Hg10 mi
5:00 PM79 °FSunny.16 mph65%29.89 "Hg10 mi
4:00 PM79 °FSunny.17 mph65%29.92 "Hg10 mi
3:00 PM79 °FSunny.16 mph65%29.92 "Hg10 mi
2:00 PM81 °FSunny.14 mph62%29.92 "Hg10 mi
1:00 PM82 °FSunny.12 mph62%29.95 "Hg10 mi
12:00 PM82 °FSunny.14 mph62%29.98 "Hg10 mi
11:00 AM79 °FSunny.18 mph70%30.01 "Hg10 mi
10:00 AM77 °FPassing clouds.18 mph79%30.01 "Hg5 mi
9:00 AM73 °FPassing clouds.16 mph83%29.98 "Hg5 mi
8:00 AM72 °FPassing clouds.10 mph88%29.98 "Hg5 mi
7:00 AM72 °FPassing clouds.10 mph88%29.95 "Hg5 mi
6:00 AM72 °FPassing clouds.10 mph88%29.95 "Hg5 mi
5:00 AM72 °FPassing clouds.13 mph88%32.90 "Hg5 mi
4:00 AM72 °FPassing clouds.14 mph88%29.95 "Hg5 mi
3:00 AM72 °FPassing clouds.N/A88%29.95 "HgN/A
2:00 AM72 °FPassing clouds.12 mph88%29.95 "Hg5 mi
1:00 AM72 °FPassing clouds.12 mph94%29.95 "Hg5 mi
12:00 AM72 °FPassing clouds.14 mph94%29.98 "Hg5 mi
11:00 PM
Mon, Oct 12
72 °FPassing clouds.14 mph88%29.98 "Hg5 mi
10:00 PM73 °FPassing clouds.14 mph89%29.98 "Hg5 mi
9:00 PM73 °FPassing clouds.13 mph89%29.95 "Hg5 mi
8:00 PM75 °FClear.16 mph78%29.92 "Hg5 mi
7:00 PM75 °FClear.16 mph78%29.92 "Hg5 mi
Weather by CustomWeather, © 2015

See weather overviewHow to use our weather pages